This demonstration page uses our WeatherBlox Daily Observations layout. Learn more.

Left ArrowRight Arrow

Hourly Observations for July 29, 2016

Temp ( °F °C ) Dew Point ( °F °C ) Humidity (%) Winds ( mph kmh ) Pressure ( in mb ) Visibility ( mi km ) Precip ( " mm )
12:18 am 00:18 Clear 66 19 64 18 94 94 N N/A 29.94 1014 10 16 N/A
12:37 am 00:37 Clear 66 19 64 18 94 94 N N/A 29.94 1014 10 16 N/A
12:58 am 00:58 Clear 66 19 64 18 94 94 N N/A 29.94 1014 10 16 N/A
1:18 am 01:18 Clear 66 19 64 18 94 94 N N/A 29.91 1013 10 16 N/A
1:37 am 01:37 Clear 66 19 64 18 94 94 N N/A 29.91 1013 10 16 N/A
1:58 am 01:58 Clear 66 19 64 18 94 94 N N/A 29.91 1013 10 16 N/A
2:18 am 02:18 Clear 66 19 64 18 94 94 SSW 3 6 29.91 1013 10 16 N/A
2:37 am 02:37 Clear 66 19 64 18 94 94 S 3 6 29.91 1013 10 16 N/A
2:58 am 02:58 Clear 66 19 64 18 94 94 N N/A 29.91 1013 10 16 N/A
3:18 am 03:18 Clear 66 19 64 18 94 94 N N/A 29.91 1013 10 16 N/A
3:38 am 03:38 Clear 66 19 64 18 94 94 N N/A 29.91 1013 10 16 N/A
3:58 am 03:58 Clear 64 18 64 18 100 100 N N/A 29.91 1013 10 16 N/A
4:18 am 04:18 Clear 64 18 64 18 100 100 N N/A 29.91 1013 10 16 N/A
4:38 am 04:38 Clear 64 18 64 18 100 100 SSE 3 6 29.91 1013 7 11 N/A
4:58 am 04:58 Clear 64 18 64 18 100 100 N N/A 29.91 1013 7 11 N/A
5:18 am 05:18 Clear 64 18 64 18 100 100 N N/A 29.91 1013 7 11 N/A
5:38 am 05:38 Clear 64 18 64 18 100 100 N N/A 29.91 1013 5 8 N/A
5:58 am 05:58 Clear 64 18 64 18 100 100 N N/A 29.91 1013 7 11 N/A
6:18 am 06:18 Clear 64 18 63 17 94 94 N N/A 29.91 1013 5 8 N/A
6:38 am 06:38 Clear 64 18 64 18 100 100 SSE 5 7 29.94 1014 5 8 N/A
6:58 am 06:58 Sunny 64 18 64 18 100 100 N N/A 29.94 1014 4 6 N/A
7:18 am 07:18 Mostly Cloudy 66 19 64 18 94 94 S 3 6 29.94 1014 4 6 N/A
7:38 am 07:38 Mostly Cloudy 66 19 66 19 100 100 S 3 6 29.94 1014 4 6 N/A
7:58 am 07:58 Partly Cloudy 68 20 66 19 94 94 S 3 6 29.94 1014 5 8 N/A
8:18 am 08:18 Sunny 70 21 66 19 88 88 S 3 6 29.91 1013 5 8 N/A
8:38 am 08:38 Sunny 72 22 68 20 88 88 SSW 3 6 29.91 1013 7 11 N/A
8:58 am 08:58 Sunny 72 22 70 21 94 94 N N/A 29.91 1013 10 16 N/A
9:18 am 09:18 Sunny 73 23 70 21 89 89 N N/A 29.91 1013 10 16 N/A
9:38 am 09:38 Sunny 75 24 70 21 83 83 N N/A 29.91 1013 10 16 N/A
9:58 am 09:58 Sunny 77 25 70 21 79 79 N N/A 29.91 1013 10 16 N/A
10:18 am 10:18 Sunny 77 25 70 21 79 79 N N/A 29.91 1013 10 16 N/A
10:38 am 10:38 Sunny 79 26 72 22 79 79 S 3 6 29.91 1013 10 16 N/A
10:58 am 10:58 Partly Cloudy 79 26 70 21 74 74 N N/A 29.94 1014 10 16 N/A
11:18 am 11:18 Partly Cloudy 81 27 70 21 70 70 SSE 3 6 29.91 1013 10 16 N/A
11:38 am 11:38 Sunny 81 27 72 22 74 74 SW 5 7 29.94 1014 10 16 N/A
11:58 am 11:58 Sunny 82 28 72 22 70 70 SSW 6 9 29.94 1014 10 16 N/A
12:18 pm 12:18 Sunny 82 28 72 22 70 70 SSE 5 7 29.91 1013 10 16 N/A
12:38 pm 12:38 Sunny 82 28 72 22 70 70 S 3 6 29.91 1013 10 16 N/A
12:58 pm 12:58 Partly Cloudy 82 28 72 22 70 70 N N/A 29.91 1013 10 16 N/A
1:18 pm 13:18 Mostly Cloudy 82 28 72 22 70 70 S 5 7 29.91 1013 10 16 N/A
1:38 pm 13:38 Partly Cloudy 82 28 72 22 70 70 S 7 11 29.91 1013 10 16 N/A
1:58 pm 13:58 Partly Cloudy 81 27 72 22 74 74 SSW 9 15 29.91 1013 10 16 N/A
2:18 pm 14:18 Partly Cloudy 79 26 72 22 79 79 S 6 9 29.88 1012 10 16 N/A
2:38 pm 14:38 Mostly Cloudy 79 26 72 22 79 79 SW 8 13 29.88 1012 10 16 N/A
2:58 pm 14:58 Cloudy 79 26 72 22 79 79 N N/A 29.88 1012 7 11 N/A
3:18 pm 15:18 Mostly Cloudy 82 28 72 22 70 70 S 6 9 29.88 1012 10 16 N/A
3:38 pm 15:38 Mostly Cloudy 81 27 72 22 74 74 SSW 5 7 29.88 1012 10 16 N/A
3:58 pm 15:58 Mostly Cloudy 82 28 72 22 70 70 SSW 8 13 29.88 1012 10 16 N/A
4:18 pm 16:18 Partly Cloudy 84 29 72 22 66 66 S 9 15 29.85 1011 10 16 N/A
4:38 pm 16:38 Sunny 82 28 68 20 62 62 S 6 9 29.85 1011 10 16 N/A
4:58 pm 16:58 Partly Cloudy 81 27 72 22 74 74 SW 7 11 29.88 1012 10 16 N/A
5:18 pm 17:18 Cloudy 75 24 72 22 89 89 WNW 9 15 29.88 1012 4 6 N/A
5:38 pm 17:38 Cloudy 73 23 70 21 89 89 NW 9 15 29.88 1012 3 4 N/A
6:18 pm 18:18 Cloudy 72 22 68 20 88 88 W 8 13 29.88 1012 4 6 N/A
6:38 pm 18:38 Cloudy 70 21 64 18 83 83 W 17 28 29.88 1012 3 5 N/A
6:58 pm 18:58 Cloudy 70 21 68 20 94 94 WSW 6 9 29.88 1012 5 8 N/A
7:18 pm 19:18 Cloudy 70 21 66 19 88 88 WNW 12 19 29.88 1012 10 16 N/A
7:38 pm 19:38 Cloudy 70 21 66 19 88 88 NW 10 17 29.91 1013 7 11 N/A
7:58 pm 19:58 Cloudy 70 21 68 20 94 94 N 12 19 29.88 1012 4 6 N/A
8:18 pm 20:18 Cloudy 70 21 70 21 100 100 NNE 7 11 29.91 1013 5 8 N/A
8:38 pm 20:38 Partly Cloudy 70 21 70 21 100 100 ENE 5 7 29.91 1013 10 16 N/A
8:58 pm 20:58 Partly Cloudy 70 21 68 20 94 94 N N/A 29.88 1012 10 16 N/A
9:18 pm 21:18 Partly Cloudy 68 20 68 20 100 100 N N/A 29.88 1012 7 11 N/A
9:38 pm 21:38 Clear 68 20 68 20 100 100 N N/A 29.94 1014 5 8 N/A
9:58 pm 21:58 Clear 68 20 68 20 100 100 N N/A 29.94 1014 3 5 N/A
10:18 pm 22:18 Clear 68 20 68 20 100 100 N N/A 29.94 1014 3 5 N/A
10:38 pm 22:38 Clear 68 20 68 20 100 100 N N/A 29.94 1014 5 8 N/A
10:58 pm 22:58 Clear 68 20 66 19 94 94 N N/A 29.97 1015 4 6 N/A
11:18 pm 23:18 Mostly Cloudy 66 19 66 19 100 100 N N/A 29.94 1014 2 3 N/A
11:38 pm 23:38 Mostly Cloudy 66 19 66 19 100 100 N N/A 29.94 1014 1 1 N/A
11:58 pm 23:58 Mostly Cloudy 66 19 66 19 100 100 N N/A 29.94 1014 1 1 N/A

Powered by AerisWeather